Directory Listing
Index of /dewikinews/20260301/

Index of /dewikinews/20260301/


../
dewikinews-20260301-all-titles-in-ns0.gz           01-Mar-2026 14:24    319K
dewikinews-20260301-all-titles.gz                  01-Mar-2026 14:24    868K
dewikinews-20260301-babel.sql.gz                   01-Mar-2026 13:45    1750
dewikinews-20260301-category.sql.gz                01-Mar-2026 13:45    177K
dewikinews-20260301-categorylinks.sql.gz           01-Mar-2026 13:45      2M
dewikinews-20260301-change_tag.sql.gz              01-Mar-2026 13:45    262K
dewikinews-20260301-change_tag_def.sql.gz          01-Mar-2026 13:45    1330
dewikinews-20260301-externallinks.sql.gz           01-Mar-2026 13:45      2M
dewikinews-20260301-geo_tags.sql.gz                01-Mar-2026 13:45     884
dewikinews-20260301-image.sql.gz                   01-Mar-2026 13:45    7253
dewikinews-20260301-imagelinks.sql.gz              01-Mar-2026 13:45    417K
dewikinews-20260301-iwlinks.sql.gz                 01-Mar-2026 13:45      1M
dewikinews-20260301-langlinks.sql.gz               01-Mar-2026 13:45    766K
dewikinews-20260301-linktarget.sql.gz              01-Mar-2026 13:45      1M
dewikinews-20260301-md5sums.json                   01-Mar-2026 14:36    3068
dewikinews-20260301-md5sums.txt                    01-Mar-2026 14:36    2858
dewikinews-20260301-page.sql.gz                    01-Mar-2026 13:45      2M
dewikinews-20260301-page_props.sql.gz              01-Mar-2026 13:45    438K
dewikinews-20260301-page_restrictions.sql.gz       01-Mar-2026 13:45    127K
dewikinews-20260301-pagelinks.sql.gz               01-Mar-2026 13:45    758K
dewikinews-20260301-pages-articles-multistream-..> 01-Mar-2026 14:19    510K
dewikinews-20260301-pages-articles-multistream...> 01-Mar-2026 14:19     21M
dewikinews-20260301-pages-articles.xml.bz2         01-Mar-2026 13:49     18M
dewikinews-20260301-pages-articles.xml.bz2.inprog  01-Mar-2026 13:48      3M
dewikinews-20260301-pages-logging.xml.gz           01-Mar-2026 14:24      4M
dewikinews-20260301-pages-meta-current.xml.bz2     01-Mar-2026 14:22     26M
dewikinews-20260301-pages-meta-current.xml.bz2...> 01-Mar-2026 14:22     24M
dewikinews-20260301-pages-meta-history.xml.7z      01-Mar-2026 14:36    112M
dewikinews-20260301-pages-meta-history.xml.bz2     01-Mar-2026 14:34    323M
dewikinews-20260301-protected_titles.sql.gz        01-Mar-2026 13:45    2332
dewikinews-20260301-redirect.sql.gz                01-Mar-2026 13:45     10K
dewikinews-20260301-runsettings.txt                01-Mar-2026 13:35      28
dewikinews-20260301-sha1sums.json                  01-Mar-2026 14:36    3373
dewikinews-20260301-sha1sums.txt                   01-Mar-2026 14:36    3162
dewikinews-20260301-site_stats.sql.gz              01-Mar-2026 13:45     844
dewikinews-20260301-siteinfo-namespaces.json.gz    01-Mar-2026 14:24    6664
dewikinews-20260301-siteinfo2-namespacesv2.json.gz 01-Mar-2026 14:24    6918
dewikinews-20260301-sites.sql.gz                   01-Mar-2026 13:45     23K
dewikinews-20260301-stub-articles.xml.gz           01-Mar-2026 13:42      4M
dewikinews-20260301-stub-meta-current.xml.gz       01-Mar-2026 13:42      6M
dewikinews-20260301-stub-meta-history.xml.gz       01-Mar-2026 13:42     60M
dewikinews-20260301-templatelinks.sql.gz           01-Mar-2026 13:45    283K
dewikinews-20260301-user_former_groups.sql.gz      01-Mar-2026 13:45     881
dewikinews-20260301-user_groups.sql.gz             01-Mar-2026 13:45     954
dewikinews-20260301-wbc_entity_usage.sql.gz        01-Mar-2026 13:45    279K
dumpruninfo.json                                   01-Mar-2026 14:36    2562
dumpruninfo.txt                                    01-Mar-2026 14:36    2202
dumpspecialfiles.json                              01-Mar-2026 14:36     131
dumpstatus.json                                    01-Mar-2026 14:36     11K
md5sums-dewikinews-20260301-all-titles-in-ns0.g..> 01-Mar-2026 14:24      75
md5sums-dewikinews-20260301-all-titles.gz.txt      01-Mar-2026 14:24      68
md5sums-dewikinews-20260301-babel.sql.gz.txt       01-Mar-2026 13:45      67
md5sums-dewikinews-20260301-category.sql.gz.txt    01-Mar-2026 13:45      70
md5sums-dewikinews-20260301-categorylinks.sql.g..> 01-Mar-2026 13:45      75
md5sums-dewikinews-20260301-change_tag.sql.gz.txt  01-Mar-2026 13:45      72
md5sums-dewikinews-20260301-change_tag_def.sql...> 01-Mar-2026 13:45      76
md5sums-dewikinews-20260301-externallinks.sql.g..> 01-Mar-2026 13:45      75
md5sums-dewikinews-20260301-geo_tags.sql.gz.txt    01-Mar-2026 13:45      70
md5sums-dewikinews-20260301-image.sql.gz.txt       01-Mar-2026 13:45      67
md5sums-dewikinews-20260301-imagelinks.sql.gz.txt  01-Mar-2026 13:45      72
md5sums-dewikinews-20260301-iwlinks.sql.gz.txt     01-Mar-2026 13:45      69
md5sums-dewikinews-20260301-langlinks.sql.gz.txt   01-Mar-2026 13:45      71
md5sums-dewikinews-20260301-linktarget.sql.gz.txt  01-Mar-2026 13:45      72
md5sums-dewikinews-20260301-page.sql.gz.txt        01-Mar-2026 13:45      66
md5sums-dewikinews-20260301-page_props.sql.gz.txt  01-Mar-2026 13:45      72
md5sums-dewikinews-20260301-page_restrictions.s..> 01-Mar-2026 13:45      79
md5sums-dewikinews-20260301-pagelinks.sql.gz.txt   01-Mar-2026 13:45      71
md5sums-dewikinews-20260301-pages-articles-mult..> 01-Mar-2026 14:19      95
md5sums-dewikinews-20260301-pages-articles-mult..> 01-Mar-2026 14:19      89
md5sums-dewikinews-20260301-pages-articles.xml...> 01-Mar-2026 13:49      77
md5sums-dewikinews-20260301-pages-logging.xml.g..> 01-Mar-2026 14:24      75
md5sums-dewikinews-20260301-pages-meta-current...> 01-Mar-2026 14:22      81
md5sums-dewikinews-20260301-pages-meta-history...> 01-Mar-2026 14:36      80
md5sums-dewikinews-20260301-pages-meta-history...> 01-Mar-2026 14:34      81
md5sums-dewikinews-20260301-protected_titles.sq..> 01-Mar-2026 13:45      78
md5sums-dewikinews-20260301-redirect.sql.gz.txt    01-Mar-2026 13:45      70
md5sums-dewikinews-20260301-site_stats.sql.gz.txt  01-Mar-2026 13:45      72
md5sums-dewikinews-20260301-siteinfo-namespaces..> 01-Mar-2026 14:24      82
md5sums-dewikinews-20260301-siteinfo2-namespace..> 01-Mar-2026 14:24      85
md5sums-dewikinews-20260301-sites.sql.gz.txt       01-Mar-2026 13:45      67
md5sums-dewikinews-20260301-stub-articles.xml.g..> 01-Mar-2026 13:42      75
md5sums-dewikinews-20260301-stub-meta-current.x..> 01-Mar-2026 13:42      79
md5sums-dewikinews-20260301-stub-meta-history.x..> 01-Mar-2026 13:42      79
md5sums-dewikinews-20260301-templatelinks.sql.g..> 01-Mar-2026 13:45      75
md5sums-dewikinews-20260301-user_former_groups...> 01-Mar-2026 13:45      80
md5sums-dewikinews-20260301-user_groups.sql.gz.txt 01-Mar-2026 13:45      73
md5sums-dewikinews-20260301-wbc_entity_usage.sq..> 01-Mar-2026 13:45      78
report.json                                        01-Mar-2026 14:36    6231
sha1sums-dewikinews-20260301-all-titles-in-ns0...> 01-Mar-2026 14:24      83
sha1sums-dewikinews-20260301-all-titles.gz.txt     01-Mar-2026 14:24      76
sha1sums-dewikinews-20260301-babel.sql.gz.txt      01-Mar-2026 13:45      75
sha1sums-dewikinews-20260301-category.sql.gz.txt   01-Mar-2026 13:45      78
sha1sums-dewikinews-20260301-categorylinks.sql...> 01-Mar-2026 13:45      83
sha1sums-dewikinews-20260301-change_tag.sql.gz.txt 01-Mar-2026 13:45      80
sha1sums-dewikinews-20260301-change_tag_def.sql..> 01-Mar-2026 13:45      84
sha1sums-dewikinews-20260301-externallinks.sql...> 01-Mar-2026 13:45      83
sha1sums-dewikinews-20260301-geo_tags.sql.gz.txt   01-Mar-2026 13:45      78
sha1sums-dewikinews-20260301-image.sql.gz.txt      01-Mar-2026 13:45      75
sha1sums-dewikinews-20260301-imagelinks.sql.gz.txt 01-Mar-2026 13:45      80
sha1sums-dewikinews-20260301-iwlinks.sql.gz.txt    01-Mar-2026 13:45      77
sha1sums-dewikinews-20260301-langlinks.sql.gz.txt  01-Mar-2026 13:45      79
sha1sums-dewikinews-20260301-linktarget.sql.gz.txt 01-Mar-2026 13:45      80
sha1sums-dewikinews-20260301-page.sql.gz.txt       01-Mar-2026 13:45      74
sha1sums-dewikinews-20260301-page_props.sql.gz.txt 01-Mar-2026 13:45      80
sha1sums-dewikinews-20260301-page_restrictions...> 01-Mar-2026 13:45      87
sha1sums-dewikinews-20260301-pagelinks.sql.gz.txt  01-Mar-2026 13:45      79
sha1sums-dewikinews-20260301-pages-articles-mul..> 01-Mar-2026 14:19     103
sha1sums-dewikinews-20260301-pages-articles-mul..> 01-Mar-2026 14:19      97
sha1sums-dewikinews-20260301-pages-articles.xml..> 01-Mar-2026 13:49      85
sha1sums-dewikinews-20260301-pages-logging.xml...> 01-Mar-2026 14:24      83
sha1sums-dewikinews-20260301-pages-meta-current..> 01-Mar-2026 14:22      89
sha1sums-dewikinews-20260301-pages-meta-history..> 01-Mar-2026 14:36      88
sha1sums-dewikinews-20260301-pages-meta-history..> 01-Mar-2026 14:34      89
sha1sums-dewikinews-20260301-protected_titles.s..> 01-Mar-2026 13:45      86
sha1sums-dewikinews-20260301-redirect.sql.gz.txt   01-Mar-2026 13:45      78
sha1sums-dewikinews-20260301-site_stats.sql.gz.txt 01-Mar-2026 13:45      80
sha1sums-dewikinews-20260301-siteinfo-namespace..> 01-Mar-2026 14:24      90
sha1sums-dewikinews-20260301-siteinfo2-namespac..> 01-Mar-2026 14:24      93
sha1sums-dewikinews-20260301-sites.sql.gz.txt      01-Mar-2026 13:45      75
sha1sums-dewikinews-20260301-stub-articles.xml...> 01-Mar-2026 13:42      83
sha1sums-dewikinews-20260301-stub-meta-current...> 01-Mar-2026 13:42      87
sha1sums-dewikinews-20260301-stub-meta-history...> 01-Mar-2026 13:42      87
sha1sums-dewikinews-20260301-templatelinks.sql...> 01-Mar-2026 13:45      83
sha1sums-dewikinews-20260301-user_former_groups..> 01-Mar-2026 13:45      88
sha1sums-dewikinews-20260301-user_groups.sql.gz..> 01-Mar-2026 13:45      81
sha1sums-dewikinews-20260301-wbc_entity_usage.s..> 01-Mar-2026 13:45      86
status.html                                        01-Mar-2026 14:36     115
tableinfo.json                                     01-Mar-2026 09:18    1540